Weather History for Herat, Afghanistan

Change the Weather History Date:

Wednesday, May 14, 2014

  Actual Average Record
Temperature  
Mean Temperature 70 °F -  
Max Temperature 86 °F 90 °F - ()
Min Temperature 53 °F 60 °F - ()
Cooling Degree Days 4    
Growing Degree Days 20 (Base 50)    
Moisture  
Dew Point 19 °F    
Average Humidity 16    
Maximum Humidity 28    
Minimum Humidity 7    
Precipitation  
Precipitation 0.00 in 0.01 in - ()
Sea Level Pressure  
Sea Level Pressure 29.84 in    
Wind  
Wind Speed 3 mph ()    
Max Wind Speed 8 mph    
Max Gust Speed -    
T = Trace of Precipitation, MM = Missing Value Source: Averaged Metar Reports

Daily Weather History Graph

Daily Weather History Graph

Search for Another Location

Airport:

Trip Planner

Search our weather history database for the weather conditions in past years. The results will help you decide how hot, cold, wet, or windy it might be!

Date:

Astronomy

May. 14, 2014 Rise Set
Actual Time 5:20 AM AFT 7:15 PM AFT
Civil Twilight 4:52 AM AFT 7:42 PM AFT
Nautical Twilight 4:19 AM AFT 8:16 PM AFT
Astronomical Twilight 3:43 AM AFT 8:52 PM AFT
Moon 6:55 PM AFT (5/14) 4:57 AM AFT (5/14)
Length of Visible Light 14h 50m
Length of Day
13h 54m
Full, 100% of the Moon is Illuminated
May 14
Full
May 14
Full
May 21
Last Quarter
May 28
New
Jun 6
First Quarter

Hourly Weather History & Observations

Time (AFT) Temp. Dew Point Humidity Pressure Visibility Wind Dir Wind Speed Gust Speed Precip Events Conditions
12:25 AM 62.6 °F 15.8 °F 16% 29.89 in - East 5.8 mph - N/A   Unknown
1:25 AM 62.6 °F 14.0 °F 15% 29.86 in - SSE 3.5 mph - N/A   Unknown
2:24 AM 62.6 °F 15.8 °F 16% 29.86 in - SSW 2.3 mph - N/A   Unknown
3:25 AM 60.8 °F 17.6 °F 19% 29.86 in - WSW 2.3 mph - N/A   Unknown
4:25 AM 57.2 °F 17.6 °F 21% 29.86 in - NNE 1.2 mph - N/A   Unknown
5:24 AM 53.6 °F 21.2 °F 28% 29.86 in - South 4.6 mph - N/A   Unknown
6:25 AM 55.4 °F 21.2 °F 26% 29.86 in - SSE 3.5 mph - N/A   Clear
7:25 AM 62.6 °F 23.0 °F 22% 29.86 in - East 2.3 mph - N/A   Clear
8:25 AM 68.0 °F 19.4 °F 16% 29.86 in - North 1.2 mph - N/A   Clear
9:25 AM 71.6 °F 26.6 °F 19% 29.86 in - North 4.6 mph - N/A   Clear
10:24 AM 75.2 °F 26.6 °F 17% 29.86 in - WNW 5.8 mph - N/A   Clear
11:25 AM 78.8 °F 23.0 °F 13% 29.86 in - North - - N/A   Clear
12:25 PM 82.4 °F 21.2 °F 10% 29.83 in - West 8.1 mph - N/A   Clear
2:25 PM 86.0 °F 14.0 °F 7% 29.80 in - WNW 6.9 mph - N/A   Clear
5:25 PM 86.0 °F 17.6 °F 8% 29.74 in - Variable 2.3 mph - N/A   Clear
8:25 PM 75.2 °F 21.2 °F 13% 29.80 in - WSW 2.3 mph - N/A   Clear
9:25 PM 73.4 °F 19.4 °F 13% 29.80 in - South 3.5 mph - N/A   Clear
10:24 PM 71.6 °F 15.8 °F 12% 29.80 in - NE 2.3 mph - N/A   Clear
11:25 PM 68.0 °F 19.4 °F 16% 29.80 in - NNE 5.8 mph - N/A   Unknown